• In Belarus
  • List of Countries
  • For 7 days
  • Water Temperature
  • Satellite Maps
  • Weather Map
  • Weather Widgets
  • user-avatar
    Login

    Hourly Weather Krapivino

    Today, 20 June, Wednesday

    Time Temperature Precipitation Wind Pressure Humidity
    00:00 +17°C° 0 mm 3 mps 740 mmHg 78%
    01:00 +15°C° 0.3 mm 4 mps 740 mmHg 82%
    02:00 +15°C° 0.3 mm 4 mps 740 mmHg 87%
    03:00 +14°C° 0.3 mm 5 mps 740 mmHg 92%
    04:00 +14°C° 0 mm 5 mps 740 mmHg 91%
    05:00 +13°C° 0 mm 5 mps 740 mmHg 90%
    06:00 +12°C° 0 mm 5 mps 741 mmHg 89%
    07:00 +14°C° 0 mm 5 mps 741 mmHg 79%
    08:00 +15°C° 0 mm 6 mps 741 mmHg 69%
    09:00 +16°C° 0 mm 6 mps 741 mmHg 59%
    10:00 +17°C° 0 mm 6 mps 741 mmHg 55%
    11:00 +19°C° 0 mm 6 mps 741 mmHg 51%
    12:00 +20°C° 0 mm 7 mps 741 mmHg 46%
    13:00 +20°C° 0 mm 6 mps 741 mmHg 48%
    14:00 +20°C° 0 mm 6 mps 741 mmHg 50%
    15:00 +20°C° 0 mm 5 mps 741 mmHg 52%
    16:00 +19°C° 0 mm 5 mps 741 mmHg 54%
    17:00 +19°C° 0 mm 5 mps 741 mmHg 55%
    18:00 +17°C° 0 mm 5 mps 741 mmHg 57%
    19:00 +16°C° 0 mm 5 mps 741 mmHg 60%
    20:00 +15°C° 0 mm 4 mps 742 mmHg 63%
    21:00 +14°C° 0 mm 4 mps 742 mmHg 66%
    22:00 +14°C° 0 mm 4 mps 742 mmHg 66%
    23:00 +13°C° 0 mm 4 mps 742 mmHg 67%

    Tomorrow, 21 June, Thursday

    Time Temperature Precipitation Wind Pressure Humidity
    00:00 +13°C° 0 mm 4 mps 742 mmHg 67%
    01:00 +12°C° 0 mm 4 mps 743 mmHg 69%
    02:00 +11°C° 0 mm 4 mps 743 mmHg 72%
    03:00 +11°C° 0 mm 3 mps 743 mmHg 75%
    04:00 +11°C° 0 mm 4 mps 743 mmHg 74%
    05:00 +12°C° 0 mm 4 mps 743 mmHg 74%
    06:00 +12°C° 0 mm 4 mps 743 mmHg 73%
    07:00 +13°C° 0 mm 4 mps 743 mmHg 68%
    08:00 +14°C° 0 mm 4 mps 743 mmHg 63%
    09:00 +16°C° 0 mm 5 mps 743 mmHg 58%
    10:00 +17°C° 0 mm 5 mps 743 mmHg 57%
    11:00 +17°C° 0 mm 5 mps 743 mmHg 56%
    12:00 +19°C° 0 mm 5 mps 743 mmHg 56%
    13:00 +20°C° 0 mm 5 mps 743 mmHg 57%
    14:00 +21°C° 0 mm 5 mps 743 mmHg 58%
    15:00 +21°C° 0 mm 5 mps 743 mmHg 60%
    16:00 +21°C° 0 mm 5 mps 743 mmHg 63%
    17:00 +21°C° 0 mm 4 mps 743 mmHg 66%
    18:00 +21°C° 0 mm 4 mps 743 mmHg 69%
    19:00 +20°C° 0 mm 3 mps 743 mmHg 75%
    20:00 +18°C° 0 mm 2 mps 742 mmHg 82%
    21:00 +18°C° 0 mm 1 mps 742 mmHg 88%
    22:00 +18°C° 0 mm 1 mps 742 mmHg 90%
    23:00 +16°C° 0 mm 2 mps 742 mmHg 92%

    Day after tomorrow, 22 June, Friday

    Time Temperature Precipitation Wind Pressure Humidity
    00:00 +16°C° 0 mm 2 mps 742 mmHg 94%
    01:00 +15°C° 0 mm 2 mps 742 mmHg 94%
    02:00 +14°C° 0 mm 3 mps 742 mmHg 94%
    03:00 +14°C° 0 mm 3 mps 742 mmHg 95%
    04:00 +16°C° 0 mm 3 mps 742 mmHg 92%
    05:00 +17°C° 0 mm 3 mps 742 mmHg 89%
    06:00 +17°C° 0 mm 4 mps 741 mmHg 86%
    07:00 +19°C° 0 mm 5 mps 741 mmHg 80%
    08:00 +21°C° 0 mm 5 mps 741 mmHg 73%
    09:00 +23°C° 0 mm 6 mps 740 mmHg 66%
    10:00 +24°C° 0 mm 6 mps 740 mmHg 62%
    11:00 +26°C° 0 mm 7 mps 740 mmHg 59%
    12:00 +27°C° 0 mm 7 mps 739 mmHg 56%
    13:00 +27°C° 0.1 mm 7 mps 739 mmHg 58%
    14:00 +28°C° 0.1 mm 7 mps 739 mmHg 60%
    15:00 +28°C° 0.1 mm 6 mps 738 mmHg 62%
    16:00 +26°C° 0.9 mm 6 mps 738 mmHg 71%
    17:00 +25°C° 0.9 mm 5 mps 739 mmHg 80%
    18:00 +23°C° 0.9 mm 5 mps 739 mmHg 88%
    19:00 +21°C° 0.8 mm 4 mps 739 mmHg 90%
    20:00 +19°C° 0.8 mm 4 mps 740 mmHg 92%
    21:00 +17°C° 0.8 mm 3 mps 740 mmHg 94%
    22:00 +16°C° 0 mm 3 mps 740 mmHg 94%
    23:00 +14°C° 0 mm 3 mps 741 mmHg 93%

    23 June, Saturday

    Time Temperature Precipitation Wind Pressure Humidity
    00:00 +14°C° 0 mm 2 mps 741 mmHg 93%
    01:00 +13°C° 0 mm 2 mps 741 mmHg 94%
    02:00 +13°C° 0 mm 2 mps 742 mmHg 94%
    03:00 +13°C° 0 mm 2 mps 742 mmHg 95%
    04:00 +13°C° 0 mm 2 mps 742 mmHg 94%
    05:00 +13°C° 0 mm 2 mps 743 mmHg 94%
    06:00 +13°C° 0 mm 2 mps 743 mmHg 94%
    07:00 +14°C° 0 mm 1 mps 743 mmHg 92%
    08:00 +14°C° 0 mm 1 mps 743 mmHg 90%
    09:00 +14°C° 0 mm 1 mps 744 mmHg 89%
    10:00 +15°C° 0 mm 1 mps 744 mmHg 88%
    11:00 +15°C° 0 mm 1 mps 744 mmHg 88%
    12:00 +14°C° 0 mm 0 mps 744 mmHg 87%
    13:00 +15°C° 0.1 mm 1 mps 744 mmHg 86%
    14:00 +15°C° 0.1 mm 1 mps 744 mmHg 85%
    15:00 +15°C° 0.1 mm 1 mps 743 mmHg 85%
    16:00 +15°C° 0.7 mm 2 mps 743 mmHg 88%
    17:00 +14°C° 0.7 mm 2 mps 743 mmHg 91%
    18:00 +12°C° 0.7 mm 3 mps 743 mmHg 95%
    19:00 +12°C° 0.5 mm 3 mps 742 mmHg 95%
    20:00 +11°C° 0.5 mm 3 mps 742 mmHg 95%
    21:00 +11°C° 0.5 mm 3 mps 741 mmHg 96%
    22:00 +11°C° 0.3 mm 3 mps 741 mmHg 96%
    23:00 +11°C° 0.3 mm 4 mps 741 mmHg 96%

    24 June, Sunday

    Time Temperature Precipitation Wind Pressure Humidity
    00:00 +10°C° 0.3 mm 4 mps 740 mmHg 97%
    01:00 +11°C° 0.6 mm 4 mps 740 mmHg 97%
    02:00 +11°C° 0.6 mm 4 mps 739 mmHg 97%
    03:00 +11°C° 0.6 mm 4 mps 738 mmHg 98%
    04:00 +11°C° 1.8 mm 4 mps 738 mmHg 98%
    05:00 +12°C° 1.8 mm 4 mps 738 mmHg 97%
    06:00 +12°C° 1.8 mm 4 mps 737 mmHg 97%
    07:00 +12°C° 0.4 mm 3 mps 737 mmHg 97%
    08:00 +12°C° 0.4 mm 3 mps 737 mmHg 97%
    09:00 +12°C° 0.4 mm 3 mps 737 mmHg 96%
    10:00 +12°C° 0.1 mm 4 mps 738 mmHg 95%
    11:00 +12°C° 0.1 mm 4 mps 738 mmHg 94%
    12:00 +12°C° 0.1 mm 5 mps 739 mmHg 93%
    13:00 +12°C° 0.1 mm 5 mps 739 mmHg 89%
    14:00 +13°C° 0.1 mm 6 mps 740 mmHg 85%
    15:00 +14°C° 0.1 mm 6 mps 740 mmHg 81%
    16:00 +14°C° 0 mm 6 mps 741 mmHg 76%
    17:00 +15°C° 0 mm 5 mps 742 mmHg 71%
    18:00 +16°C° 0 mm 5 mps 742 mmHg 66%
    19:00 +15°C° 0 mm 4 mps 742 mmHg 72%
    20:00 +14°C° 0 mm 3 mps 743 mmHg 78%
    21:00 +13°C° 0 mm 2 mps 743 mmHg 83%
    22:00 +13°C° 0 mm 2 mps 743 mmHg 87%
    23:00 +12°C° 0 mm 2 mps 743 mmHg 91%

    25 June, Monday

    Time Temperature Precipitation Wind Pressure Humidity
    00:00 +10°C° 0 mm 2 mps 744 mmHg 94%
    01:00 +10°C° 0 mm 3 mps 744 mmHg 96%
    02:00 +10°C° 0 mm 3 mps 744 mmHg 97%
    03:00 +9°C° 0 mm 3 mps 744 mmHg 98%
    04:00 +10°C° 0 mm 3 mps 744 mmHg 96%
    05:00 +10°C° 0 mm 3 mps 745 mmHg 95%
    06:00 +11°C° 0 mm 3 mps 745 mmHg 93%
    07:00 +12°C° 0 mm 4 mps 745 mmHg 90%
    08:00 +12°C° 0 mm 4 mps 745 mmHg 86%
    09:00 +13°C° 0 mm 4 mps 745 mmHg 83%
    10:00 +15°C° 0 mm 4 mps 745 mmHg 77%
    11:00 +17°C° 0 mm 4 mps 745 mmHg 72%
    12:00 +18°C° 0 mm 4 mps 745 mmHg 67%
    13:00 +19°C° 0.3 mm 4 mps 745 mmHg 65%
    14:00 +19°C° 0.3 mm 4 mps 745 mmHg 64%
    15:00 +20°C° 0.3 mm 4 mps 745 mmHg 63%
    16:00 +19°C° 0.3 mm 4 mps 745 mmHg 66%
    17:00 +19°C° 0.3 mm 3 mps 745 mmHg 69%
    18:00 +19°C° 0.3 mm 3 mps 745 mmHg 73%
    19:00 +17°C° 0.2 mm 3 mps 745 mmHg 79%
    20:00 +16°C° 0.2 mm 2 mps 745 mmHg 85%
    21:00 +14°C° 0.2 mm 2 mps 745 mmHg 92%
    22:00 +13°C° 0.1 mm 2 mps 745 mmHg 93%
    23:00 +13°C° 0.1 mm 2 mps 745 mmHg 95%
    Show more